KC8JWT Weather Reports


time (UTC)temp
C
wind
direction
speed
KPH
gust
KPH
rain 1hr
cm
rain 24hr
cm
rain mn
cm
humidity
%
barometer
mb
20260502151941 13 189 4.8 4.8 0.00 0.03 0.03 54 1016.9
20260502151438 12 148 0.0 1.6 0.00 0.03 0.03 59 1016.7
20260502150935 12 218 9.7 12.9 0.00 0.03 0.03 57 1017.3
20260502150432 12 250 3.2 3.2 0.00 0.03 0.03 60 1017.0
20260502130317 8 132 0.0 0.0 0.00 0.03 0.03 78 1017.1
20260502123803 7 153 1.6 1.6 0.00 0.03 0.03 88 1017.2
20260502123300 7 219 4.8 8.0 0.18 0.03 0.03 95 1017.1
20260502122756 7 175 3.2 4.8 0.18 0.03 0.03 99 1017.0
20260502122253 6 143 0.0 1.6 0.00 0.00 0.00 99 1017.1
20260502121751 6 137 1.6 1.6 0.00 0.00 0.00 99 1017.3
20260502121249 6 146 0.0 0.0 0.00 0.00 0.00 99 1017.1
20260502120745 6 160 0.0 0.0 0.00 0.00 0.00 99 1017.0
20260502120242 5 160 0.0 0.0 0.00 0.00 0.00 99 1017.0
20260502115740 5 160 0.0 0.0 0.00 0.00 0.00 99 1017.1
20260502115236 5 160 0.0 0.0 0.00 0.00 0.00 99 1017.2
20260502114732 5 160 0.0 1.6 0.00 0.00 0.00 99 1017.2
20260502114229 4 161 0.0 0.0 0.00 0.00 0.00 99 1017.1
20260502113727 3 161 0.0 0.0 0.00 0.00 0.00 99 1017.1
20260502113224 3 161 0.0 0.0 0.00 0.00 0.00 99 1017.0
20260502112722 3 161 0.0 0.0 0.00 0.00 0.00 99 1016.8
20260502112220 3 161 0.0 0.0 0.00 0.00 0.00 99 1017.1
20260502111716 3 161 1.6 1.6 0.00 0.00 0.00 99 1016.9
20260502111214 3 161 0.0 0.0 0.00 0.00 0.00 99 1016.9
20260502110711 3 161 0.0 0.0 0.00 0.00 0.00 99 1016.9
20260502110209 3 159 0.0 0.0 0.00 0.00 0.00 99 1017.0
20260502105707 3 159 0.0 0.0 0.00 0.00 0.00 99 1017.0
20260502105203 3 165 0.0 0.0 0.00 0.00 0.00 99 1017.0
20260502104700 3 165 0.0 0.0 0.00 0.00 0.00 99 1017.0
20260502104158 3 158 1.6 1.6 0.00 0.00 0.00 99 1017.3
20260502103655 3 152 1.6 1.6 0.00 0.00 0.00 99 1017.1
20260502103153 3 152 0.0 0.0 0.00 0.00 0.00 99 1017.2
20260502102650 3 152 1.6 1.6 0.00 0.00 0.00 99 1017.1
20260502102146 3 152 1.6 1.6 0.00 0.00 0.00 99 1017.0
20260502101644 3 150 0.0 0.0 0.00 0.00 0.00 99 1017.2
20260502101142 3 150 0.0 0.0 0.00 0.00 0.00 99 1016.9
20260502100641 3 150 0.0 0.0 0.00 0.00 0.00 99 1017.3
20260502100138 3 150 0.0 0.0 0.00 0.00 0.00 99 1016.9
20260502091113 2 141 0.0 0.0 0.00 0.00 0.00 99 1017.3
20260502090610 2 141 0.0 0.0 0.00 0.00 0.00 99 1017.4
20260502090107 2 141 0.0 0.0 0.00 0.00 0.00 99 1017.2
20260502071504 2 141 0.0 0.0 0.00 0.00 0.00 99 1016.5
20260502071002 2 141 0.0 0.0 0.00 0.00 0.00 99 1016.4
20260502070500 3 141 0.0 0.0 0.00 0.00 0.00 99 1016.6
20260502065958 2 141 0.0 0.0 0.00 0.00 0.00 99 1016.6
20260502065456 3 141 0.0 0.0 0.00 0.00 0.00 99 1016.8
20260502064954 3 141 0.0 0.0 0.00 0.00 0.00 99 1016.7
20260502064452 3 141 0.0 0.0 0.00 0.00 0.00 99 1017.0
20260502063949 3 141 0.0 0.0 0.00 0.00 0.00 99 1016.8
20260502063447 4 141 0.0 0.0 0.00 0.00 0.00 99 1017.3
20260502062944 4 141 0.0 0.0 0.00 0.00 0.00 99 1017.0
20260502062441 4 141 0.0 0.0 0.00 0.00 0.00 99 1017.4
20260502061939 4 141 0.0 0.0 0.00 0.00 0.00 99 1017.2
20260502061437 4 141 0.0 0.0 0.00 0.00 0.00 99 1017.3
20260502060933 4 141 0.0 0.0 0.00 0.00 0.00 99 1017.1
20260502060428 4 141 0.0 0.0 0.00 0.00 0.00 99 1017.2
20260502055925 4 141 0.0 0.0 0.00 0.00 0.00 99 1017.2
20260502055423 4 141 0.0 0.0 0.00 0.00 0.00 99 1017.4
20260502054923 3 141 0.0 0.0 0.00 0.00 0.00 99 1017.3
20260502054420 3 141 0.0 0.0 0.00 0.00 0.00 99 1017.4
20260502053917 3 141 0.0 0.0 0.00 0.00 0.00 99 1017.5
20260502053415 3 141 0.0 0.0 0.00 0.00 0.00 99 1017.6
20260502052912 3 141 0.0 0.0 0.00 0.00 0.00 99 1017.2
20260502052410 3 141 0.0 0.0 0.00 0.00 0.00 99 1017.6
20260502051908 3 141 0.0 0.0 0.00 0.00 0.00 99 1017.3
20260502051406 3 141 0.0 0.0 0.00 0.00 0.00 99 1017.3
20260502050902 2 141 0.0 0.0 0.00 0.00 0.00 99 1017.5
20260502050359 2 141 0.0 0.0 0.00 0.00 0.00 99 1017.7
20260502045856 2 141 0.0 0.0 0.00 0.00 0.00 99 1017.5
20260502045353 2 141 0.0 0.0 0.00 0.00 0.00 99 1017.5
20260502044850 2 141 0.0 0.0 0.00 0.00 0.00 99 1017.6
20260502044345 2 141 0.0 0.0 0.00 0.00 0.00 99 1017.6
20260502043843 2 141 0.0 0.0 0.00 0.00 0.00 99 1017.5
20260502043341 2 141 0.0 0.0 0.00 0.00 0.00 99 1017.7
20260502042840 2 141 0.0 0.0 0.00 0.00 0.00 99 1017.5
20260502042337 2 141 0.0 0.0 0.00 0.00 0.00 99 1017.2
20260502041835 2 141 0.0 0.0 0.00 0.00 0.00 99 1017.3
20260502041332 2 141 0.0 0.0 0.00 0.00 0.00 99 1017.4
20260502040829 2 141 0.0 0.0 0.00 0.00 0.00 99 1017.5
20260502040326 2 141 0.0 0.0 0.00 0.00 0.00 99 1017.4
20260502035822 2 141 0.0 0.0 0.00 0.05 0.05 99 1017.2
20260502035319 2 141 0.0 0.0 0.00 0.05 0.05 99 1017.4
20260502034816 2 141 0.0 0.0 0.00 0.05 0.05 99 1017.4
20260502034314 2 141 0.0 0.0 0.00 0.05 0.05 99 1017.1
20260502033813 2 141 0.0 0.0 0.00 0.05 0.05 99 1017.3
20260502033310 2 141 0.0 0.0 0.00 0.05 0.05 99 1017.4
20260502032806 2 141 0.0 0.0 0.00 0.05 0.05 99 1017.4
20260502032305 2 141 0.0 0.0 0.00 0.05 0.05 99 1017.4
20260502031800 2 141 0.0 0.0 0.00 0.05 0.05 99 1017.6
20260502031258 3 141 0.0 0.0 0.00 0.05 0.05 98 1017.5
20260502030757 3 141 0.0 0.0 0.00 0.05 0.05 98 1017.4
20260502030254 3 141 0.0 0.0 0.00 0.05 0.05 98 1017.5
20260502025751 2 141 0.0 0.0 0.00 0.05 0.05 98 1017.5
20260502025249 3 141 0.0 0.0 0.00 0.05 0.05 98 1017.3
20260502024747 3 141 0.0 0.0 0.00 0.05 0.05 98 1017.0
20260502024244 3 141 0.0 0.0 0.00 0.05 0.05 97 1017.2
20260502023742 3 141 0.0 0.0 0.00 0.05 0.05 97 1016.9
20260502023239 3 141 0.0 0.0 0.00 0.05 0.05 97 1017.0
20260502022737 3 141 0.0 0.0 0.00 0.05 0.05 97 1017.1
20260502022233 3 141 0.0 0.0 0.00 0.05 0.05 96 1016.8
20260502021730 4 141 0.0 0.0 0.00 0.05 0.05 96 1016.8
20260502021228 4 141 0.0 0.0 0.00 0.05 0.05 96 1016.6
20260502020725 4 141 0.0 0.0 0.00 0.05 0.05 95 1016.8
20260502020222 4 141 0.0 0.0 0.00 0.05 0.05 95 1016.7
20260502015720 5 141 0.0 0.0 0.00 0.05 0.05 95 1016.6
20260502015216 5 141 0.0 0.0 0.00 0.05 0.05 94 1016.6
20260502014714 5 141 0.0 0.0 0.00 0.05 0.05 94 1016.4
20260502014210 5 141 0.0 0.0 0.00 0.05 0.05 94 1016.6
20260502013706 5 141 0.0 0.0 0.00 0.05 0.05 93 1016.7
20260502013202 5 141 0.0 0.0 0.00 0.05 0.05 92 1016.3
20260502012659 5 141 0.0 0.0 0.00 0.05 0.05 92 1016.4
20260502012157 5 141 0.0 0.0 0.00 0.05 0.05 90 1016.1
20260502011653 5 141 0.0 0.0 0.00 0.05 0.05 89 1016.0
20260502011149 6 141 0.0 0.0 0.00 0.05 0.05 87 1016.0
20260502010647 6 141 0.0 0.0 0.00 0.05 0.05 86 1016.0
20260502010143 6 141 0.0 0.0 0.00 0.05 0.05 85 1015.9
20260502005641 7 141 0.0 0.0 0.00 0.05 0.05 83 1015.5
20260502005138 7 141 0.0 0.0 0.00 0.05 0.05 82 1015.6
20260502004634 7 142 0.0 0.0 0.00 0.05 0.05 81 1015.5
20260502004131 7 136 0.0 0.0 0.00 0.05 0.05 81 1015.5
20260502003629 8 148 1.6 1.6 0.00 0.05 0.05 80 1015.2
20260502003126 8 141 1.6 3.2 0.00 0.05 0.05 79 1015.3
20260502002622 8 155 3.2 3.2 0.00 0.05 0.05 79 1015.1
20260502002120 8 132 1.6 1.6 0.00 0.05 0.05 78 1015.1
20260502001617 8 150 0.0 0.0 0.00 0.05 0.05 77 1015.0
20260502001114 8 153 0.0 3.2 0.00 0.05 0.05 77 1014.7
20260502000612 9 116 3.2 3.2 0.00 0.05 0.05 76 1014.7
20260502000109 9 278 3.2 4.8 0.00 0.05 0.05 76 1014.7
20260501235605 10 214 6.4 8.0 0.00 0.05 0.05 75 1014.3
20260501235101 10 115 0.0 1.6 0.00 0.05 0.05 75 1014.2
20260501234557 10 143 0.0 1.6 0.00 0.05 0.05 74 1014.3
20260501234055 10 204 6.4 9.7 0.00 0.05 0.05 72 1014.2
20260501233553 11 177 6.4 8.0 0.00 0.05 0.05 72 1014.1
20260501233049 11 268 8.0 12.9 0.00 0.05 0.05 71 1013.9
20260501232545 12 284 3.2 4.8 0.00 0.05 0.05 70 1013.9
20260501232043 11 150 3.2 4.8 0.00 0.05 0.05 73 1013.9
20260501231541 11 189 6.4 9.7 0.00 0.05 0.05 73 1013.7
20260501231039 11 177 3.2 4.8 0.00 0.05 0.05 73 1013.4
20260501230537 11 85 1.6 3.2 0.00 0.05 0.05 71 1013.6
20260501230035 11 237 4.8 9.7 0.00 0.05 0.05 70 1013.5
20260501225532 11 213 4.8 4.8 0.00 0.05 0.05 69 1013.1
20260501225028 12 46 4.8 8.0 0.00 0.05 0.05 69 1013.3
20260501224526 12 204 3.2 8.0 0.00 0.05 0.05 69 1013.1
20260501224023 12 69 3.2 8.0 0.00 0.05 0.05 69 1013.1
20260501223519 12 326 11.3 12.9 0.00 0.05 0.05 71 1013.1
20260501223015 13 148 4.8 4.8 0.00 0.05 0.05 70 1013.0
20260501222512 14 159 3.2 3.2 0.00 0.05 0.05 74 1012.9
20260501222009 13 97 1.6 3.2 0.00 0.05 0.05 77 1012.9
20260501221505 12 133 0.0 1.6 0.00 0.05 0.05 81 1012.8
20260501221003 12 145 0.0 1.6 0.00 0.05 0.05 80 1012.9
20260501220500 13 193 3.2 3.2 0.00 0.05 0.05 79 1012.8
20260501215956 13 151 1.6 3.2 0.00 0.05 0.05 79 1012.9
20260501215453 12 211 4.8 9.7 0.00 0.05 0.05 80 1012.9
20260501214948 12 277 9.7 14.5 0.00 0.05 0.05 81 1012.9
20260501214444 13 217 3.2 4.8 0.00 0.05 0.05 80 1012.7
20260501213940 14 180 3.2 3.2 0.00 0.05 0.05 78 1012.6
20260501213437 13 260 4.8 4.8 0.00 0.05 0.05 81 1012.5
20260501212932 13 158 1.6 1.6 0.00 0.05 0.05 82 1012.6
20260501212430 13 183 8.0 11.3 0.00 0.05 0.05 82 1012.7
20260501211926 12 174 1.6 3.2 0.00 0.05 0.05 83 1012.8
20260501211424 12 231 6.4 9.7 0.00 0.05 0.05 84 1012.7
20260501210921 11 234 4.8 8.0 0.00 0.05 0.05 87 1012.7
20260501210418 11 231 4.8 4.8 0.00 0.05 0.05 89 1012.8
20260501205914 11 164 1.6 1.6 0.00 0.05 0.05 89 1012.6
20260501205411 10 200 4.8 4.8 0.00 0.05 0.05 90 1012.7
20260501204908 10 160 1.6 1.6 0.00 0.05 0.05 91 1012.7
20260501204404 10 237 4.8 8.0 0.00 0.05 0.05 92 1012.9
20260501203900 10 180 3.2 3.2 0.00 0.05 0.05 93 1012.9
20260501203358 10 208 4.8 4.8 0.00 0.05 0.05 92 1012.9
20260501202855 10 202 4.8 4.8 0.00 0.05 0.05 92 1012.9
20260501202352 10 154 0.0 1.6 0.00 0.05 0.05 92 1012.8
20260501201848 10 146 0.0 1.6 0.00 0.05 0.05 92 1012.8
20260501201345 10 148 0.0 0.0 0.00 0.05 0.05 92 1013.1
20260501200842 10 126 0.0 0.0 0.00 0.05 0.05 91 1012.8
20260501200339 10 141 1.6 3.2 0.13 0.05 0.05 89 1012.8
20260501195837 11 155 1.6 3.2 0.13 0.05 0.05 88 1013.2
20260501195332 11 207 4.8 4.8 0.00 0.03 0.03 87 1013.2
20260501194829 11 222 3.2 4.8 0.00 0.03 0.03 86 1013.1
20260501194325 11 159 3.2 3.2 0.00 0.03 0.03 86 1013.2
20260501193821 11 188 3.2 4.8 0.00 0.03 0.03 86 1013.1
20260501193320 12 224 8.0 9.7 0.00 0.03 0.03 84 1013.0
20260501192817 12 163 3.2 4.8 0.00 0.03 0.03 85 1012.9
20260501192314 12 153 1.6 1.6 0.00 0.03 0.03 83 1012.9
20260501191811 12 148 1.6 1.6 0.00 0.03 0.03 84 1012.9
20260501191309 12 124 0.0 1.6 0.00 0.03 0.03 85 1012.8
20260501190805 12 146 0.0 1.6 0.00 0.03 0.03 85 1012.6
20260501190300 11 136 0.0 0.0 0.00 0.03 0.03 85 1012.7
20260501185756 12 157 1.6 3.2 0.00 0.03 0.03 85 1012.8
20260501185252 12 158 1.6 1.6 0.00 0.03 0.03 84 1012.9
20260501184749 12 133 1.6 1.6 0.00 0.03 0.03 84 1012.6
20260501184244 12 135 1.6 1.6 0.18 0.03 0.03 83 1012.6
20260501183740 12 226 3.2 3.2 0.18 0.03 0.03 81 1012.6
20260501183238 12 149 1.6 1.6 0.00 0.00 0.00 79 1012.3
20260501182734 12 153 1.6 1.6 0.00 0.00 0.00 79 1012.2
20260501182231 12 92 4.8 9.7 0.00 0.00 0.00 74 1012.4
20260501181728 13 228 6.4 9.7 0.00 0.00 0.00 71 1012.2
20260501181225 13 179 4.8 9.7 0.00 0.00 0.00 68 1012.2
20260501180723 14 249 6.4 8.0 0.00 0.00 0.00 63 1011.9
20260501180218 15 259 8.0 11.3 0.00 0.00 0.00 63 1011.7
20260501175715 15 167 3.2 3.2 0.00 0.00 0.00 61 1011.9
20260501175212 15 154 1.6 1.6 0.00 0.00 0.00 60 1011.8
20260501174708 16 229 6.4 8.0 0.00 0.00 0.00 58 1011.9
20260501174206 16 235 9.7 14.5 0.00 0.00 0.00 57 1011.7
20260501173704 17 147 4.8 4.8 0.00 0.00 0.00 58 1011.8
20260501173201 16 210 4.8 4.8 0.00 0.00 0.00 58 1011.7
20260501172657 16 156 1.6 3.2 0.00 0.00 0.00 55 1011.9
20260501172152 16 281 11.3 14.5 0.00 0.00 0.00 56 1011.8
20260501171648 16 144 4.8 8.0 0.00 0.00 0.00 56 1012.0
20260501171145 17 148 3.2 3.2 0.00 0.00 0.00 57 1011.9
20260501170642 16 78 1.6 3.2 0.00 0.00 0.00 55 1012.2
20260501170139 16 151 3.2 3.2 0.00 0.00 0.00 57 1011.8
20260501165636 16 154 3.2 4.8 0.00 0.00 0.00 60 1012.2
20260501165133 16 257 3.2 4.8 0.00 0.00 0.00 59 1012.1
20260501164632 15 206 4.8 4.8 0.00 0.00 0.00 59 1012.2
20260501164128 15 158 1.6 3.2 0.00 0.00 0.00 58 1012.2
20260501163624 15 178 3.2 3.2 0.00 0.00 0.00 61 1012.3
20260501163122 15 233 4.8 8.0 0.00 0.00 0.00 59 1012.5
20260501162617 15 277 11.3 16.1 0.00 0.00 0.00 61 1012.4
20260501162114 16 245 8.0 11.3 0.00 0.00 0.00 59 1012.4
20260501161612 15 143 1.6 1.6 0.00 0.00 0.00 60 1012.5
20260501161108 15 204 6.4 11.3 0.00 0.00 0.00 61 1012.5
20260501160605 15 204 11.3 14.5 0.00 0.00 0.00 60 1012.4